• In Lithuania
  • List of Countries
  • For 7 days
  • Water Temperature
  • Satellite Maps
  • Weather Map
  • Weather Widgets
  • user-avatar
    Login

    Hourly Weather Pchelovodnyy

    Today, 23 September, Sunday

    Time Temperature Precipitation Wind Pressure Humidity
    00:00 +21°C° 0 mm 3 mps 761 mmHg 52%
    01:00 +20°C° 0 mm 3 mps 761 mmHg 54%
    02:00 +20°C° 0 mm 3 mps 761 mmHg 56%
    03:00 +19°C° 0 mm 3 mps 760 mmHg 58%
    04:00 +19°C° 0 mm 3 mps 760 mmHg 61%
    05:00 +19°C° 0 mm 3 mps 760 mmHg 64%
    06:00 +18°C° 0 mm 3 mps 760 mmHg 68%
    07:00 +20°C° 0 mm 3 mps 760 mmHg 62%
    08:00 +21°C° 0 mm 3 mps 760 mmHg 57%
    09:00 +23°C° 0 mm 4 mps 760 mmHg 52%
    10:00 +26°C° 0 mm 4 mps 759 mmHg 45%
    11:00 +28°C° 0 mm 4 mps 759 mmHg 38%
    12:00 +30°C° 0 mm 5 mps 759 mmHg 30%
    13:00 +30°C° 0 mm 5 mps 758 mmHg 30%
    14:00 +30°C° 0 mm 6 mps 758 mmHg 31%
    15:00 +30°C° 0 mm 7 mps 758 mmHg 31%
    16:00 +29°C° 0.1 mm 6 mps 758 mmHg 37%
    17:00 +27°C° 0.1 mm 6 mps 758 mmHg 43%
    18:00 +24°C° 0.1 mm 6 mps 758 mmHg 50%
    19:00 +23°C° 0.1 mm 5 mps 759 mmHg 55%
    20:00 +21°C° 0.1 mm 5 mps 759 mmHg 60%
    21:00 +20°C° 0.1 mm 4 mps 760 mmHg 65%
    22:00 +19°C° 0 mm 4 mps 760 mmHg 68%
    23:00 +19°C° 0 mm 5 mps 761 mmHg 72%

    Tomorrow, 24 September, Monday

    Time Temperature Precipitation Wind Pressure Humidity
    00:00 +17°C° 0 mm 5 mps 761 mmHg 75%
    01:00 +17°C° 0 mm 4 mps 761 mmHg 74%
    02:00 +15°C° 0 mm 4 mps 762 mmHg 74%
    03:00 +14°C° 0 mm 3 mps 762 mmHg 74%
    04:00 +13°C° 0 mm 3 mps 762 mmHg 74%
    05:00 +14°C° 0 mm 2 mps 762 mmHg 74%
    06:00 +13°C° 0 mm 2 mps 763 mmHg 74%
    07:00 +14°C° 0 mm 2 mps 763 mmHg 68%
    08:00 +15°C° 0 mm 2 mps 763 mmHg 61%
    09:00 +18°C° 0 mm 1 mps 763 mmHg 54%
    10:00 +18°C° 0 mm 2 mps 762 mmHg 46%
    11:00 +20°C° 0 mm 2 mps 762 mmHg 39%
    12:00 +21°C° 0 mm 2 mps 762 mmHg 32%
    13:00 +22°C° 0 mm 3 mps 761 mmHg 29%
    14:00 +24°C° 0 mm 3 mps 760 mmHg 27%
    15:00 +25°C° 0 mm 4 mps 759 mmHg 24%
    16:00 +24°C° 0 mm 3 mps 759 mmHg 28%
    17:00 +24°C° 0 mm 3 mps 759 mmHg 33%
    18:00 +23°C° 0 mm 2 mps 758 mmHg 37%
    19:00 +23°C° 0 mm 2 mps 758 mmHg 43%
    20:00 +21°C° 0 mm 3 mps 758 mmHg 49%
    21:00 +21°C° 0 mm 3 mps 757 mmHg 55%
    22:00 +21°C° 0 mm 3 mps 757 mmHg 59%
    23:00 +21°C° 0 mm 4 mps 756 mmHg 63%

    Day after tomorrow, 25 September, Tuesday

    Time Temperature Precipitation Wind Pressure Humidity
    00:00 +21°C° 0 mm 4 mps 756 mmHg 66%
    01:00 +20°C° 0 mm 4 mps 756 mmHg 71%
    02:00 +20°C° 0 mm 5 mps 755 mmHg 76%
    03:00 +20°C° 0 mm 5 mps 755 mmHg 81%
    04:00 +20°C° 0.1 mm 5 mps 755 mmHg 81%
    05:00 +19°C° 0.1 mm 5 mps 756 mmHg 81%
    06:00 +19°C° 0.1 mm 6 mps 756 mmHg 81%
    07:00 +17°C° 0.2 mm 6 mps 756 mmHg 78%
    08:00 +16°C° 0.2 mm 6 mps 757 mmHg 75%
    09:00 +15°C° 0.2 mm 5 mps 757 mmHg 72%
    10:00 +15°C° 0.2 mm 5 mps 758 mmHg 69%
    11:00 +15°C° 0.2 mm 5 mps 758 mmHg 65%
    12:00 +15°C° 0.2 mm 5 mps 759 mmHg 62%
    13:00 +16°C° 0 mm 5 mps 759 mmHg 55%
    14:00 +17°C° 0 mm 5 mps 759 mmHg 48%
    15:00 +19°C° 0 mm 5 mps 759 mmHg 42%
    16:00 +19°C° 0 mm 5 mps 760 mmHg 43%
    17:00 +18°C° 0 mm 4 mps 760 mmHg 44%
    18:00 +18°C° 0 mm 4 mps 760 mmHg 44%
    19:00 +18°C° 0 mm 4 mps 761 mmHg 44%
    20:00 +17°C° 0 mm 4 mps 761 mmHg 44%
    21:00 +17°C° 0 mm 4 mps 762 mmHg 43%
    22:00 +15°C° 0 mm 4 mps 762 mmHg 45%
    23:00 +15°C° 0 mm 4 mps 762 mmHg 47%

    26 September, Wednesday

    Time Temperature Precipitation Wind Pressure Humidity
    00:00 +14°C° 0 mm 4 mps 762 mmHg 49%
    01:00 +13°C° 0 mm 4 mps 763 mmHg 53%
    02:00 +12°C° 0 mm 3 mps 763 mmHg 58%
    03:00 +11°C° 0 mm 3 mps 764 mmHg 62%
    04:00 +11°C° 0 mm 3 mps 764 mmHg 64%
    05:00 +10°C° 0 mm 3 mps 765 mmHg 66%
    06:00 +9°C° 0 mm 3 mps 765 mmHg 67%
    07:00 +10°C° 0 mm 3 mps 766 mmHg 61%
    08:00 +12°C° 0 mm 3 mps 766 mmHg 55%
    09:00 +13°C° 0 mm 4 mps 767 mmHg 49%
    10:00 +14°C° 0 mm 4 mps 767 mmHg 45%
    11:00 +15°C° 0 mm 4 mps 767 mmHg 41%
    12:00 +17°C° 0 mm 4 mps 768 mmHg 36%
    13:00 +17°C° 0 mm 4 mps 768 mmHg 35%
    14:00 +17°C° 0 mm 4 mps 768 mmHg 33%
    15:00 +17°C° 0 mm 4 mps 768 mmHg 32%
    16:00 +17°C° 0 mm 4 mps 768 mmHg 33%
    17:00 +16°C° 0 mm 3 mps 768 mmHg 35%
    18:00 +14°C° 0 mm 3 mps 768 mmHg 36%
    19:00 +13°C° 0 mm 3 mps 769 mmHg 38%
    20:00 +13°C° 0 mm 3 mps 769 mmHg 40%
    21:00 +12°C° 0 mm 3 mps 770 mmHg 41%
    22:00 +12°C° 0 mm 2 mps 770 mmHg 44%
    23:00 +12°C° 0 mm 2 mps 770 mmHg 46%

    27 September, Thursday

    Time Temperature Precipitation Wind Pressure Humidity
    00:00 +10°C° 0 mm 2 mps 770 mmHg 48%
    01:00 +10°C° 0 mm 2 mps 770 mmHg 49%
    02:00 +9°C° 0 mm 2 mps 770 mmHg 51%
    03:00 +9°C° 0 mm 2 mps 770 mmHg 53%
    04:00 +9°C° 0 mm 1 mps 770 mmHg 54%
    05:00 +9°C° 0 mm 1 mps 770 mmHg 56%
    06:00 +9°C° 0 mm 1 mps 770 mmHg 58%
    07:00 +10°C° 0 mm 1 mps 770 mmHg 53%
    08:00 +12°C° 0 mm 1 mps 770 mmHg 48%
    09:00 +13°C° 0 mm 1 mps 770 mmHg 43%
    10:00 +14°C° 0 mm 2 mps 770 mmHg 38%
    11:00 +16°C° 0 mm 3 mps 769 mmHg 34%
    12:00 +17°C° 0 mm 4 mps 769 mmHg 29%
    13:00 +17°C° 0 mm 4 mps 768 mmHg 28%
    14:00 +18°C° 0 mm 4 mps 768 mmHg 27%
    15:00 +17°C° 0 mm 5 mps 767 mmHg 26%
    16:00 +17°C° 0 mm 4 mps 767 mmHg 28%
    17:00 +15°C° 0 mm 4 mps 767 mmHg 31%
    18:00 +14°C° 0 mm 4 mps 766 mmHg 34%
    19:00 +14°C° 0 mm 4 mps 766 mmHg 37%
    20:00 +13°C° 0 mm 3 mps 766 mmHg 41%
    21:00 +12°C° 0 mm 3 mps 766 mmHg 44%
    22:00 +12°C° 0 mm 3 mps 766 mmHg 46%
    23:00 +12°C° 0 mm 3 mps 766 mmHg 48%

    28 September, Friday

    Time Temperature Precipitation Wind Pressure Humidity
    00:00 +11°C° 0 mm 3 mps 766 mmHg 50%
    01:00 +11°C° 0 mm 3 mps 765 mmHg 50%
    02:00 +11°C° 0 mm 3 mps 765 mmHg 51%
    03:00 +11°C° 0 mm 3 mps 765 mmHg 52%
    04:00 +11°C° 0 mm 3 mps 764 mmHg 53%
    05:00 +11°C° 0 mm 3 mps 764 mmHg 53%
    06:00 +10°C° 0 mm 3 mps 764 mmHg 54%
    07:00 +12°C° 0 mm 4 mps 764 mmHg 49%
    08:00 +14°C° 0 mm 4 mps 764 mmHg 45%
    09:00 +17°C° 0 mm 4 mps 764 mmHg 40%
    10:00 +17°C° 0 mm 5 mps 764 mmHg 36%
    11:00 +20°C° 0 mm 5 mps 763 mmHg 32%
    12:00 +21°C° 0 mm 5 mps 763 mmHg 29%
    13:00 +22°C° 0 mm 5 mps 762 mmHg 28%
    14:00 +22°C° 0 mm 5 mps 762 mmHg 28%
    15:00 +23°C° 0 mm 5 mps 761 mmHg 28%
    16:00 +21°C° 0 mm 4 mps 761 mmHg 31%
    17:00 +20°C° 0 mm 4 mps 761 mmHg 34%
    18:00 +19°C° 0 mm 3 mps 761 mmHg 38%
    19:00 +18°C° 0 mm 3 mps 761 mmHg 42%
    20:00 +17°C° 0 mm 3 mps 761 mmHg 46%
    21:00 +16°C° 0 mm 3 mps 761 mmHg 50%
    22:00 +16°C° 0 mm 2 mps 761 mmHg 52%
    23:00 +15°C° 0 mm 2 mps 761 mmHg 55%
    Show more